TimePDT,TemperatureF,Dew PointF,Humidity,Sea Level PressureIn,VisibilityMPH,Wind Direction,Wind SpeedMPH,Gust SpeedMPH,PrecipitationIn,Events,Conditions,WindDirDegrees,DateUTC
12:53 AM,73.9,61.0,64,29.97,10.0,SE,3.5,-,N/A,,Clear,140,2013-06-30 07:53:00
1:53 AM,72.0,61.0,68,29.98,10.0,SE,8.1,-,N/A,,Clear,140,2013-06-30 08:53:00
2:53 AM,71.1,61.0,70,29.98,10.0,South,3.5,-,N/A,,Clear,170,2013-06-30 09:53:00
3:53 AM,69.1,60.1,73,29.98,10.0,ESE,3.5,-,N/A,,Clear,120,2013-06-30 10:53:00
4:53 AM,66.9,59.0,76,29.98,10.0,ESE,5.8,-,N/A,,Clear,110,2013-06-30 11:53:00
5:53 AM,68.0,59.0,73,30.00,10.0,ESE,4.6,-,N/A,,Clear,110,2013-06-30 12:53:00
6:53 AM,73.0,61.0,66,30.01,10.0,Calm,Calm,-,N/A,,Clear,0,2013-06-30 13:53:00
7:53 AM,77.0,60.1,56,30.01,10.0,Variable,4.6,-,N/A,,Clear,0,2013-06-30 14:53:00
8:53 AM,79.0,60.1,52,30.01,10.0,Variable,3.5,-,N/A,,Clear,0,2013-06-30 15:53:00
9:53 AM,82.9,61.0,47,29.99,10.0,Calm,Calm,-,N/A,,Clear,0,2013-06-30 16:53:00
10:53 AM,88.0,60.1,39,29.98,10.0,Variable,3.5,-,N/A,,Clear,0,2013-06-30 17:53:00
11:53 AM,93.0,57.9,31,29.96,10.0,Variable,5.8,-,N/A,,Clear,0,2013-06-30 18:53:00
12:53 PM,93.9,55.0,27,29.94,10.0,ENE,10.4,16.1,N/A,,Clear,60,2013-06-30 19:53:00
1:53 PM,97.0,55.9,25,29.92,10.0,North,6.9,-,N/A,,Clear,360,2013-06-30 20:53:00
2:53 PM,100.0,55.9,23,29.90,10.0,NNE,10.4,-,N/A,,Clear,30,2013-06-30 21:53:00
3:53 PM,100.0,55.0,22,29.89,10.0,ENE,15.0,-,N/A,,Clear,60,2013-06-30 22:53:00
4:53 PM,100.0,55.0,22,29.87,10.0,NE,16.1,-,N/A,,Clear,40,2013-06-30 23:53:00
5:53 PM,100.0,55.9,23,29.85,10.0,NE,17.3,-,N/A,,Clear,50,2013-07-01 00:53:00
6:53 PM,97.0,57.0,26,29.85,10.0,NE,17.3,26.5,N/A,,Clear,40,2013-07-01 01:53:00
7:53 PM,91.9,60.1,34,29.85,10.0,NE,15.0,-,N/A,,Clear,40,2013-07-01 02:53:00
8:53 PM,84.9,61.0,44,29.85,10.0,NE,12.7,-,N/A,,Clear,50,2013-07-01 03:53:00
9:53 PM,82.0,62.1,51,29.85,10.0,East,15.0,-,N/A,,Clear,80,2013-07-01 04:53:00
10:53 PM,79.0,62.1,56,29.86,10.0,ENE,12.7,-,N/A,,Clear,70,2013-07-01 05:53:00
11:53 PM,75.9,60.1,58,29.86,10.0,East,5.8,-,N/A,,Clear,80,2013-07-01 06:53:00